FENGYUN 1C DEB

Satellite information

Favourite Embed

Satellite Type and Status

DEBRISIN ORBIT

Key statistics

Satellite FENGYUN 1C DEB at a glance.

Uptime

9493

Days in orbit

Revolutions

≈ 13.5

Per day

Orbit

SSO

Sun Synchronous Orbit

Inclination

102.7

Latest

Satellite identification and parameters

Extended collection of information and parameters for FENGYUN 1C DEB.

Object identification

Identified? True

Debris? True

Object name: FENGYUN 1C DEB

International designator: 1999-025EJJ

Object number (NORAD): 37464

Object ID (CCSDS): 37464

Country: PEOPLES REPUBLIC OF CHINA (PRC)

Current information (Y/N): Y

RCS size: SMALL

Orbital parameters

Period: 107.022 minutes

Inclination: 102.7099 deg

SMA: 7466.913 km

Apoapsis: 1431.128 km

Periapsis: 746.427 km

RAAN: 350.1351 deg

Eccentricy: 0.045849

Argument of periapsis: 242.2877 deg

Mean anomaly: 113.1023 deg

Mean motion: 13.45523091 rev/day

Mean motion (dot): 0.00002768 rev/day2

B* drag term: 0.0025272 1/REarth

Two-line elements (TLE)

Creation date: May 6, 2025, 3:54 a.m.

Reference frame: TEME

Reference center: EARTH

Epoch: May 5, 2025, 8:57 a.m. UTC

TLE line 0: 0 FENGYUN 1C DEB

TLE line 1: 1 37464U 99025EJJ 25125.37292805 .00002768 00000-0 25272-2 0 9993

TLE line 2: 2 37464 102.7099 350.1351 0458490 242.2877 113.1023 13.45523091579436

Live tracking on map

Real-time ground track for satellite FENGYUN 1C DEB.

In-orbit conjunctions

A list of the most updated potential collisions computed for object FENGYUN 1C DEB.

Target Orbit TCA Probability of collision Miss distance Type
COSMOS 1697 LEO 2025-04-27 09:19:45 0.0005795581 318.0 (m) PAYLOAD
SL-8 R/B LEO 2024-08-19 06:28:23 0.0001647491 136.0 (m) ROCKET BODY
COSMOS 1754 LEO 2024-06-09 18:44:45 0.0001492567 579.0 (m) PAYLOAD

Associated space launch

Chinese polar orbiting meteorological satellite

FENGYUN 1C DEB was lifted into orbit during the mission ‘Long March 4B | Feng Yun 1C’, on board a Long March 4B space rocket.

The launch took place on May 10, 1999, 1:33 a.m. from Launch Complex 7.

For more information about the launch, click the button.

Launch to space Long March 4B | Feng Yun 1C
Long March 4B | Feng Yun 1C

Agency: N/A

Status: Launch Successful

Launch date: May 10, 1999, 1:33 a.m. UTC

Rocket: Long March 4B

Launch pad: Launch Complex 7

Location: Taiyuan Satellite Launch Center, People's Republic of China

...

Latest news about this satellite

There are no fresh news available about this satellite. Check back as we update our databases every day.


Newsletter sign-up

Weekly statistics, charts and insights to help you stay on top of the space industry.